[[{"header":{"parameterUnit":"m.s-1","parameterCategory":1,"la1":30.2991,"la2":30.254,"lo1":-89.0895,"lo2":-89.0444,"dy":0.0017,"dx":0.0017,"nx":28,"ny":28,"refTime":"2024-02-23T09:00:00:Z","depth":0,"parameterNumber":2,"parameterNumberName":"U-component_of_WINDS"},"data":[0,0,0,0,0,0,0,0,0,0,0,0,0,0,0,0,0,0,0,0,0,0,0,0,0,0,0,0,0,0,0,0,0,0,0,0,0,0,0,0,0,0,0,0,0,0,0,0,0,0,0,0,0,0,0,0,0,0,3.9287,3.9287,0,3.9312,3.9312,3.9312,3.9263,3.9261,3.9259,3.9258,3.9287,3.9289,3.9291,0,0,0,0,0,0,0,0,0,0,0,0,0,3.92,3.9202,3.9286,3.9287,3.9287,3.9312,3.9312,3.9313,3.9263,3.9261,3.9259,3.9257,3.9286,3.9289,3.9292,0,0,0,0,0,0,0,0,0,0,0,0,0,3.9233,3.9203,3.9286,3.9265,3.9264,3.9312,3.9312,3.9313,3.9263,3.9261,3.9258,3.9256,3.9285,3.9289,3.9292,3.9363,0,0,3.9303,3.9304,0,0,0,0,0,0,0,0,3.9231,3.9236,3.9268,3.9267,3.9265,3.9281,3.9292,3.933,3.9264,3.9264,3.9258,3.9255,3.9287,3.929,3.9301,3.9364,3.9365,3.9303,3.9305,3.9306,3.9307,0,0,0,0,0,0,0,3.9229,3.9235,3.9297,3.9269,3.9267,3.9256,3.9258,3.9299,3.9289,3.9263,3.926,3.9263,3.9286,3.9297,3.9301,3.9366,3.9303,3.9306,3.9308,3.9309,3.9493,3.9496,0,0,0,0,0,0,3.9229,3.9233,3.9296,3.9297,3.9242,3.926,3.9262,3.9279,3.9288,3.9287,3.9265,3.9261,3.9293,3.9297,3.9302,3.9388,3.9306,3.931,3.9312,3.9491,3.9494,3.9497,0,0,0,0,0,0,3.9227,3.9235,3.9295,3.9264,3.9271,3.9264,3.9283,3.9281,3.9292,3.929,3.9288,3.9279,3.9291,3.9297,3.9349,3.9388,3.9311,3.9314,3.9487,3.9492,3.9495,3.956,0,0,0,0,0,0,3.9225,3.9235,3.926,3.9265,3.9273,3.934,3.9286,3.9283,3.9298,3.9292,3.9302,3.9301,3.9289,3.9344,3.9352,3.9392,3.9317,3.9484,3.9489,3.9494,3.9554,3.9566,3.9575,0,0,0,0,0,3.9222,3.9277,3.9261,3.9269,3.9304,3.9342,3.9347,3.9331,3.9301,3.9328,3.9327,3.9301,3.9383,3.935,3.9359,3.94,3.9481,3.9488,3.9494,3.9549,3.9563,3.9575,0,0,0,0,0,0,3.9276,3.9277,3.926,3.9318,3.933,3.9333,3.9366,3.9346,3.9368,3.9362,3.9343,3.9345,3.9402,3.9406,3.9369,3.9471,3.9427,3.9435,3.9466,3.948,3.949,3.9488,3.932,0,0,0,0,0,3.9295,3.9324,3.9324,3.9375,3.9382,3.9373,3.9389,3.9376,3.9389,3.9394,3.9397,3.9411,3.9441,3.946,3.9486,3.9554,3.9558,3.9587,3.9598,3.9607,3.9615,3.9655,3.9669,3.9518,3.9518,3.9518,0,0,3.9334,3.9338,3.9357,3.9386,3.9394,3.9427,3.9378,3.9414,3.9439,3.94,3.9449,3.9452,3.9467,3.9529,3.9556,3.9534,3.9658,3.9615,3.9622,3.9625,3.9663,3.9677,3.969,3.9522,3.9521,3.9521,0,0,3.9421,3.9426,3.9471,3.9481,3.9494,3.9488,3.95,3.9507,3.9507,3.9556,3.9529,3.9559,3.9609,3.9622,3.9635,3.9732,3.971,3.9741,3.9798,3.9836,3.9848,3.9859,3.9896,3.9909,3.9749,3.9749,3.9749,0,3.9468,3.9515,3.9497,3.9536,3.955,3.9517,3.9564,3.9574,3.9596,3.9608,3.9583,3.9647,3.9655,3.972,3.9744,3.9755,3.9769,3.974,3.9848,3.9858,3.9868,3.9903,3.9917,3.9753,3.9752,3.9752,3.9752,0,3.9574,3.9607,3.9642,3.9664,3.9682,3.9725,3.9716,3.9737,3.9724,3.9722,3.9775,3.9783,3.9812,3.9826,3.9813,3.9891,3.9878,3.9851,3.9806,3.9886,3.992,3.9933,3.9758,3.9757,3.9756,3.9755,0,0,3.9694,3.9708,3.9721,3.9732,3.9746,3.9772,3.9815,3.9843,3.9864,3.9881,3.9918,3.9962,3.9939,3.9954,3.9942,3.9976,4.0056,3.9945,3.9946,3.9968,4.0146,4.0168,4.0183,4.0042,4.0044,4.0046,4.0146,0,3.9783,3.9855,3.9842,3.9913,3.9946,3.9917,3.9954,3.9968,3.9968,3.9998,3.9998,4.0031,3.9995,4.0005,4.0037,4.004,4.0092,4.0032,4.0078,4.008,4.0077,4.02,4.0222,4.0315,4.0158,4.016,4.0162,0,3.9896,3.9918,3.9993,4.0004,4.0018,4.0051,4.0078,4.0106,4.0122,4.012,4.0139,4.0122,4.0168,4.0123,4.0187,4.0146,4.0165,4.0169,4.0173,4.0177,4.0127,4.021,4.0344,4.0359,4.0182,4.018,4.0179,0,3.998,4.0028,4.008,4.009,4.0104,4.0129,4.0137,4.0151,4.017,4.0194,4.0207,4.0236,4.0253,4.0277,4.027,4.0237,4.0337,4.029,4.0338,4.0339,4.0361,4.036,4.0502,4.0371,4.037,4.037,4.037,0,4.0081,4.0128,4.0118,4.015,4.0203,4.0189,4.0243,4.0247,4.0261,4.0295,4.0271,4.0304,4.0292,4.0325,4.032,4.0375,4.0382,4.0384,4.0382,4.0387,4.0387,4.0399,4.0393,4.0374,4.0373,4.0372,4.0372,0,4.0183,4.0178,4.0233,4.0243,4.0247,4.0286,4.0296,4.0327,4.0326,4.037,4.038,4.0379,4.0417,4.0412,4.0454,4.0451,4.0521,4.0511,4.0516,4.0514,4.0564,4.056,4.072,4.0741,4.0594,4.0596,4.0597,0,4.0249,4.0285,4.03,4.0321,4.033,4.0364,4.0384,4.0372,4.0394,4.0418,4.0447,4.0483,4.0511,4.0574,4.0579,4.0612,4.0603,4.0657,4.0608,4.0613,4.0607,4.0606,4.0611,4.0667,4.0669,4.067,4.0671,0,4.0367,4.0363,4.0392,4.0421,4.0446,4.0468,4.0488,4.0507,4.0498,4.0525,4.0563,4.0585,4.0629,4.0667,4.0699,4.0708,4.069,4.0687,4.07,4.0706,4.0708,4.071,4.0544,4.0683,4.0682,4.0681,4.0681,4.068,4.0454,4.0486,4.0502,4.0536,4.0551,4.0571,4.0602,4.0606,4.0638,4.0672,4.0664,4.0709,4.0728,4.0769,4.0783,4.0819,4.0799,4.0818,4.0823,4.0829,4.0835,4.0702,4.0825,4.0824,4.0824,4.0824,4.0823,0,4.0572,4.0582,4.0614,4.0643,4.0671,4.0651,4.0673,4.0698,4.0738,4.0757,4.0785,4.0832,4.0869,4.0877,4.0913,4.0941,4.0934,4.0951,4.0949,4.0953,4.0849,4.0835,4.0956,4.0956,4.0956,4.0956,4.0956,4.0956,4.0637,4.0692,4.0691,4.0753,4.0762,4.0805,4.0821,4.0841,4.0856,4.0909,4.0939,4.0944,4.096,4.0998,4.1032,4.1034,4.1049,4.107,4.1069,4.0973,4.0959,4.0947,4.0933,4.1073,4.1073,4.1169,4.117,4.1171]},{"header":{"parameterUnit":"m.s-1","parameterCategory":1,"la1":30.2991,"la2":30.254,"lo1":-89.0895,"lo2":-89.0444,"dy":0.0017,"dx":0.0017,"nx":28,"ny":28,"refTime":"2024-02-23T09:00:00:Z","depth":0,"parameterNumber":3,"parameterNumberName":"V-component_of_WINDS"},"data":[0,0,0,0,0,0,0,0,0,0,0,0,0,0,0,0,0,0,0,0,0,0,0,0,0,0,0,0,0,0,0,0,0,0,0,0,0,0,0,0,0,0,0,0,0,0,0,0,0,0,0,0,0,0,0,0,0,0,2.149,2.1491,0,2.1586,2.1587,2.1588,2.159,2.1589,2.1588,2.1587,2.1686,2.169,2.1693,0,0,0,0,0,0,0,0,0,0,0,0,0,2.131,2.1313,2.149,2.1491,2.1492,2.1585,2.1587,2.1588,2.159,2.1589,2.1587,2.1586,2.1685,2.1689,2.1694,0,0,0,0,0,0,0,0,0,0,0,0,0,2.1395,2.1314,2.1489,2.1504,2.1507,2.1585,2.1587,2.1588,2.1591,2.1589,2.1587,2.1585,2.1683,2.1689,2.1694,2.1765,0,0,2.1712,2.1714,0,0,0,0,0,0,0,0,2.139,2.1402,2.1501,2.1503,2.1506,2.1574,2.156,2.1648,2.1591,2.1559,2.1587,2.1585,2.165,2.1659,2.168,2.1769,2.1774,2.1712,2.1715,2.1718,2.1719,0,0,0,0,0,0,0,2.1384,2.1397,2.1528,2.1502,2.1506,2.1507,2.1517,2.1576,2.1613,2.1561,2.1562,2.1573,2.1651,2.1675,2.1683,2.1775,2.1712,2.1717,2.172,2.1723,2.1928,2.193,0,0,0,0,0,0,2.1375,2.1393,2.1525,2.153,2.1443,2.1511,2.1523,2.1554,2.1613,2.162,2.1575,2.1573,2.1666,2.1676,2.1686,2.1774,2.1718,2.1723,2.1726,2.1926,2.1929,2.1931,0,0,0,0,0,0,2.1371,2.1387,2.1521,2.1462,2.1479,2.1516,2.1552,2.1557,2.1581,2.1623,2.1629,2.1592,2.1665,2.1678,2.1746,2.1777,2.1726,2.1731,2.1924,2.1927,2.193,2.1949,0,0,0,0,0,0,2.1366,2.1385,2.1412,2.1462,2.1482,2.1578,2.1553,2.156,2.159,2.1589,2.1641,2.1648,2.1665,2.1737,2.1751,2.1784,2.1735,2.1921,2.1925,2.1929,2.1945,2.1952,2.1958,0,0,0,0,0,2.136,2.1414,2.1414,2.1429,2.1516,2.158,2.1591,2.161,2.1593,2.162,2.1647,2.1646,2.1771,2.1744,2.176,2.1795,2.1919,2.1924,2.1928,2.1943,2.1951,2.1958,0,0,0,0,0,0,2.1366,2.142,2.1421,2.1492,2.1531,2.158,2.1615,2.1617,2.1662,2.1659,2.168,2.1692,2.1759,2.1784,2.1752,2.1867,2.1843,2.1851,2.1849,2.1857,2.1863,2.1856,2.174,0,0,0,0,0,2.1376,2.1423,2.1468,2.1526,2.1546,2.1577,2.1606,2.1617,2.1658,2.1675,2.1707,2.1747,2.1796,2.1827,2.1874,2.1949,2.1961,2.1981,2.1987,2.1992,2.1999,2.2041,2.2051,2.1946,2.1946,2.1946,0,0,2.1397,2.1432,2.146,2.1529,2.156,2.1609,2.1591,2.1643,2.168,2.1682,2.1748,2.1773,2.182,2.1891,2.1924,2.1914,2.203,2.1998,2.2001,2.2006,2.2047,2.2057,2.2066,2.1949,2.1949,2.1948,0,0,2.146,2.1491,2.1544,2.1576,2.1624,2.1644,2.1657,2.1706,2.1722,2.1788,2.1792,2.1836,2.1919,2.1952,2.198,2.2057,2.2058,2.2071,2.2104,2.2145,2.2154,2.2161,2.219,2.22,2.2078,2.2078,2.2078,0,2.148,2.1553,2.1571,2.1623,2.1654,2.1659,2.1713,2.1743,2.1804,2.1826,2.1813,2.1918,2.1949,2.2029,2.2048,2.207,2.2086,2.2066,2.2151,2.2159,2.2166,2.2194,2.2204,2.208,2.208,2.2079,2.2079,0,2.1576,2.1626,2.1664,2.1723,2.1757,2.181,2.1837,2.187,2.1878,2.19,2.1968,2.2006,2.2062,2.2081,2.209,2.2163,2.2155,2.2146,2.2123,2.2177,2.2203,2.2214,2.2082,2.2081,2.2081,2.208,0,0,2.1646,2.1714,2.1728,2.1755,2.1809,2.1849,2.1902,2.1957,2.1985,2.2027,2.2073,2.2144,2.2136,2.2168,2.218,2.2216,2.2276,2.2203,2.2205,2.2217,2.2361,2.2368,2.238,2.2277,2.2279,2.228,2.2358,0,2.1715,2.1811,2.1829,2.1913,2.1961,2.1966,2.2013,2.2052,2.2074,2.2118,2.2143,2.2193,2.2178,2.2198,2.2233,2.2261,2.2306,2.2256,2.2321,2.2323,2.2311,2.2394,2.2401,2.2473,2.2368,2.237,2.2371,0,2.181,2.1854,2.1943,2.1991,2.2012,2.2054,2.2106,2.2147,2.2191,2.2205,2.2241,2.2249,2.2306,2.228,2.2359,2.2325,2.2352,2.237,2.2373,2.2381,2.2351,2.2405,2.2496,2.2507,2.2387,2.2386,2.2385,0,2.1854,2.1936,2.2,2.2023,2.208,2.211,2.2135,2.2177,2.2209,2.2254,2.2276,2.2327,2.2355,2.2395,2.2417,2.2396,2.2496,2.2471,2.251,2.2509,2.2531,2.253,2.2629,2.2547,2.2547,2.2547,2.2546,0,2.193,2.1985,2.202,2.206,2.2121,2.2142,2.2202,2.2227,2.2265,2.231,2.2317,2.2359,2.2385,2.2431,2.2449,2.2513,2.2525,2.2539,2.2543,2.2539,2.2538,2.2558,2.2555,2.2549,2.2549,2.2548,2.2548,0,2.199,2.2016,2.2086,2.2135,2.2149,2.2192,2.2234,2.2273,2.2295,2.2352,2.2367,2.2402,2.2457,2.2483,2.255,2.2562,2.2636,2.2636,2.2621,2.2623,2.2661,2.2657,2.2778,2.2795,2.27,2.2701,2.2702,0,2.2038,2.208,2.2133,2.2164,2.219,2.2239,2.2272,2.2294,2.2328,2.2382,2.2415,2.247,2.2515,2.2603,2.2635,2.2687,2.2689,2.2728,2.2697,2.2692,2.2692,2.2689,2.2694,2.2734,2.2735,2.2735,2.2736,0,2.212,2.2131,2.2178,2.223,2.2269,2.231,2.2351,2.2376,2.2405,2.2443,2.2499,2.2534,2.2604,2.2659,2.2713,2.274,2.2744,2.2745,2.2757,2.2754,2.2744,2.2752,2.2637,2.2743,2.2742,2.2741,2.2741,2.2741,2.2177,2.2215,2.2259,2.2311,2.2344,2.2383,2.2422,2.245,2.2497,2.2555,2.2565,2.2625,2.2669,2.2743,2.2772,2.282,2.2811,2.2828,2.2832,2.2837,2.284,2.2736,2.2829,2.2829,2.2829,2.2829,2.2829,0,2.2261,2.229,2.2337,2.2395,2.2436,2.2435,2.2481,2.2516,2.2569,2.2609,2.2654,2.2719,2.2773,2.2809,2.2864,2.2895,2.2898,2.2909,2.2907,2.2914,2.2844,2.2828,2.2906,2.2906,2.2906,2.2906,2.2906,2.2906,2.2309,2.2374,2.2391,2.2473,2.2501,2.256,2.2587,2.2622,2.2655,2.2728,2.2772,2.2796,2.2835,2.2893,2.2942,2.2952,2.2972,2.2983,2.2993,2.2927,2.2919,2.2911,2.2897,2.2987,2.2987,2.3059,2.306,2.306]}]]